GOES 1 [-] 1 08366U 75100A 13170.54276414 .00000000 00000-0 10000-3 0 4271 2 08366 13.7255 334.6805 0004525 139.6257 220.4100 1.00258564137625 GOES 2 [-] 1 10061U 77048A 13169.28756341 -.00000272 00000-0 10000-3 0 6577 2 10061 14.5537 343.2327 0009776 284.9199 74.9746 0.99400887 76331 GOES 3 [P] 1 10953U 78062A 13169.51350104 .00000000 00000-0 10000-3 0 2425 2 10953 14.5101 346.8192 0007345 99.9353 260.1493 1.00276222 81345 GOES 4 [-] 1 11964U 80074A 13168.99820462 -.00000022 00000-0 10000-3 0 8784 2 11964 15.0954 350.4816 0031052 342.7095 17.1833 0.99226957 80533 GOES 5 [-] 1 12472U 81049A 13169.64750091 .00000072 00000-0 10000-3 0 7306 2 12472 14.7073 0.6213 0004873 107.9392 252.1140 1.00297753 75376 GOES 6 [-] 1 14050U 83041A 13165.61911899 .00000058 00000-0 00000+0 0 7424 2 14050 14.6569 5.5260 0007459 89.5765 256.2466 1.00268075168427 GOES 7 [-] 1 17561U 87022A 13165.37096168 -.00000188 00000-0 10000-3 0 9694 2 17561 14.3269 21.7603 0004226 11.7174 348.2926 0.99908511 79520 GOES 8 [-] 1 23051U 94022A 13166.44253216 -.00000208 00000-0 10000-3 0 6017 2 23051 9.0641 54.6140 0000312 181.9245 178.0072 0.98907700 77154 GOES 9 [P] 1 23581U 95025A 13169.28348597 .00000020 00000-0 10000-3 0 8890 2 23581 8.6007 53.1613 0009329 27.8134 332.1477 0.98799609 65879 GOES 10 [-] 1 24786U 97019A 13169.83574633 .00000000 00000-0 10000-3 0 8131 2 24786 6.8495 56.6721 0027497 107.4039 252.7628 0.99119706 59021 GOES 11 [+] 1 26352U 00022A 13169.67499595 -.00000198 00000-0 00000+0 0 2313 2 26352 1.9266 99.9496 0006624 3.0933 356.2880 0.99043454 48008 GOES 12 [B] 1 26871U 01031A 13170.17007228 -.00000283 00000-0 00000+0 0 1061 2 26871 3.0566 69.3569 0003771 53.4982 145.6786 1.00281519 43677 GOES 13 [+] 1 29155U 06018A 13170.38114777 -.00000246 00000-0 10000-3 0 6058 2 29155 0.1833 262.5860 0004188 176.5123 250.5766 1.00282715 25929 GOES 14 [S] 1 35491U 09033A 13170.35492535 -.00000084 00000-0 00000+0 0 9986 2 35491 0.2456 83.2147 0004411 101.3876 105.5130 1.00271959 14590 GOES 15 [S] 1 36411U 10008A 13169.68261663 .00000088 00000-0 10000-3 0 6135 2 36411 0.1928 88.3668 0002171 15.9200 274.0207 1.00285714 12096